Darstellungsparameter: Aktuell verwendete Einstellungen:
Skalierung der Graphiken ... ?
xyx+y,   Skalierungsfaktor:      Skalierung: Modus: x, Faktor: 1
Darstellungszeitraum ... ?
Vom - - bis: - -   Zeitraum: 26.09.2010 - 26.09.2010
Min/Max/Avg-Anzeige ... ?
Zeige MMA aktuell
Zeige MMA Monat
Zeige MMA alles
Zeige --A aktuell
Zeige --A Monat
Zeige --A alles
Keine MMA-Anzeige
MMA:
Minimum Maximum Average (ber die Originaldaten)
MMA-Basis: 26.09.2010 - 26.09.2010
Quicknavigation für Darstellung... ?
Tage:      1T, 2T, 3T, 5T -1T -2T -3T -5T +1T +2T +3T +5T
Wochen: 1W, 2W, 3W -1W -2W -3W +1W +2W +3W
Monate: 1M, 3M, 6M -1M -3M -6M +1M +3M +6M
Jahre:    1J, 3J, 5J, 10J -1J -3J -5J -10J +1J +3J +5J +10J
Nutze für die Darstellung ... ?
Originaldaten oder Mittelwerte auf ...
Stundenbasis Tagesbasis Wochenbasis
Monatsbasis Jahresbasis      Datenbasis: Original-Daten
Darstellen als:
Statistik (Auto) Statistik J:M      Darstellung:
Zur Graphik,    zurück zur Übersicht aller Sensoren.
 
Tabellarische Datenbersicht: ?
 
Sensor: Nr:Datum:Temp:Abs-Feuchte:Windchill:Wind:
Aussen-T/F 1 26-09-2010 00:10:01 9.1 C 7.63 g/m*3 9.1 C 0 km/h
2 26-09-2010 00:22:02 9.5 C 7.92 g/m*3 9.5 C 0 km/h
3 26-09-2010 00:34:02 9.5 C 7.92 g/m*3 9.5 C 0 km/h
4 26-09-2010 00:46:02 9.6 C 7.79 g/m*3 9.6 C 0 km/h
5 26-09-2010 00:58:02 9.5 C 7.55 g/m*3 9.5 C 0 km/h
6 26-09-2010 01:10:02 9.5 C 7.37 g/m*3 9.5 C 0 km/h
7 26-09-2010 01:22:02 9.5 C 7.28 g/m*3 9.5 C 0 km/h
8 26-09-2010 01:34:02 9.4 C 7.15 g/m*3 9.4 C 0 km/h
9 26-09-2010 01:46:01 9.5 C 7.19 g/m*3 9.5 C 0 km/h
10 26-09-2010 01:58:01 9.5 C 7.19 g/m*3 9.5 C 0 km/h
11 26-09-2010 02:10:02 9.5 C 7.19 g/m*3 9.5 C 0 km/h
12 26-09-2010 02:22:01 9.5 C 7.1 g/m*3 9.5 C 0 km/h
13 26-09-2010 02:34:01 9.3 C 7.01 g/m*3 9.3 C 0 km/h
14 26-09-2010 02:46:01 9.4 C 6.96 g/m*3 9.4 C 0 km/h
15 26-09-2010 02:58:01 9.4 C 6.96 g/m*3 9.4 C 0 km/h
16 26-09-2010 03:10:01 9.3 C 6.92 g/m*3 9.3 C 0 km/h
17 26-09-2010 03:22:01 9.3 C 7.01 g/m*3 9.3 C 0 km/h
18 26-09-2010 03:34:01 9.3 C 7.1 g/m*3 9.3 C 0 km/h
19 26-09-2010 03:46:01 9.1 C 7.1 g/m*3 9.1 C 0 km/h
20 26-09-2010 03:58:01 9 C 7.23 g/m*3 9 C 0 km/h
21 26-09-2010 04:10:01 9 C 7.32 g/m*3 9 C 0 km/h
22 26-09-2010 04:22:01 9 C 7.23 g/m*3 9 C 0 km/h
23 26-09-2010 04:34:02 8.9 C 7.27 g/m*3 8.9 C 0 km/h
24 26-09-2010 04:46:01 8.7 C 7.26 g/m*3 8.7 C 0 km/h
25 26-09-2010 04:58:01 8.8 C 7.31 g/m*3 8.8 C 0 km/h
Sensor: Nr:Datum:Temp:Abs-Feuchte:Windchill:Wind:
Aussen-T/F 26 26-09-2010 05:10:02 9 C 7.32 g/m*3 9 C 0 km/h
27 26-09-2010 05:22:01 9.1 C 7.36 g/m*3 9.1 C 0 km/h
28 26-09-2010 05:34:01 9 C 7.32 g/m*3 9 C 0 km/h
29 26-09-2010 05:46:01 9 C 7.32 g/m*3 9 C 0 km/h
30 26-09-2010 05:58:01 9 C 7.32 g/m*3 9 C 0 km/h
31 26-09-2010 06:10:02 9 C 7.32 g/m*3 9 C 0 km/h
32 26-09-2010 06:22:01 9.1 C 7.36 g/m*3 9.1 C 0 km/h
33 26-09-2010 06:34:01 8.8 C 7.31 g/m*3 8.8 C 0 km/h
34 26-09-2010 06:46:01 8.8 C 7.4 g/m*3 8.8 C 0 km/h
35 26-09-2010 06:58:01 8.8 C 7.49 g/m*3 8.8 C 0 km/h
36 26-09-2010 07:10:01 8.8 C 7.49 g/m*3 8.8 C 0 km/h
37 26-09-2010 07:22:02 8.5 C 7.26 g/m*3 8.5 C 0 km/h
38 26-09-2010 07:34:01 8.6 C 7.39 g/m*3 8.6 C 0 km/h
39 26-09-2010 07:46:02 8.9 C 7.62 g/m*3 8.9 C 0 km/h
40 26-09-2010 07:58:02 9.2 C 7.5 g/m*3 9.2 C 0 km/h
41 26-09-2010 08:10:01 9.5 C 7.55 g/m*3 9.5 C 0 km/h
42 26-09-2010 08:22:02 9.6 C 7.33 g/m*3 9.6 C 0 km/h
43 26-09-2010 08:34:01 9.7 C 7.19 g/m*3 9.7 C 0 km/h
44 26-09-2010 08:46:02 9.7 C 7.19 g/m*3 9.7 C 0 km/h
45 26-09-2010 08:58:02 9.6 C 7.24 g/m*3 9.6 C 0 km/h
46 26-09-2010 09:10:01 9.4 C 7.24 g/m*3 9.4 C 0 km/h
47 26-09-2010 09:22:01 9.4 C 7.33 g/m*3 9.4 C 0 km/h
48 26-09-2010 09:34:02 10.5 C 7.57 g/m*3 10.5 C 0 km/h
49 26-09-2010 09:46:01 11 C 7.11 g/m*3 11 C 0 km/h
50 26-09-2010 09:58:01 11 C 6.61 g/m*3 11 C 0 km/h
Sensor: Nr:Datum:Temp:Abs-Feuchte:Windchill:Wind:
Aussen-T/F 51 26-09-2010 10:10:02 11 C 6.61 g/m*3 11 C 0 km/h
52 26-09-2010 10:22:01 11.6 C 6.76 g/m*3 11.6 C 0 km/h
53 26-09-2010 10:34:02 12 C 6.61 g/m*3 12 C 0 km/h
54 26-09-2010 10:46:01 11.9 C 6.78 g/m*3 11.9 C 0 km/h
55 26-09-2010 10:58:01 12.7 C 7.01 g/m*3 12.7 C 0 km/h
56 26-09-2010 11:10:02 12.9 C 6.42 g/m*3 12.9 C 0 km/h
57 26-09-2010 11:22:01 13.1 C 6.5 g/m*3 13.1 C 0 km/h
58 26-09-2010 11:34:02 13.2 C 6.66 g/m*3 13.2 C 0 km/h
59 26-09-2010 11:46:02 13.5 C 6.32 g/m*3 13.5 C 0 km/h
60 26-09-2010 11:58:02 13.4 C 6.28 g/m*3 13.4 C 0 km/h
61 26-09-2010 12:10:01 14 C 6.39 g/m*3 14 C 0 km/h
62 26-09-2010 12:22:02 14.3 C 6.51 g/m*3 14.3 C 0 km/h
63 26-09-2010 12:34:01 14.6 C 6.51 g/m*3 14.6 C 0 km/h
64 26-09-2010 12:46:01 15 C 6.28 g/m*3 15 C 0 km/h
65 26-09-2010 12:58:01 14.5 C 6.22 g/m*3 14.5 C 0 km/h
66 26-09-2010 13:10:02 14.5 C 6.34 g/m*3 14.5 C 0 km/h
67 26-09-2010 13:22:01 13.2 C 7.12 g/m*3 13.2 C 0 km/h
68 26-09-2010 13:34:01 12.6 C 7.63 g/m*3 12.6 C 0 km/h
69 26-09-2010 13:46:01 12.4 C 8.3 g/m*3 12.4 C 0 km/h
70 26-09-2010 13:58:01 12.3 C 8.25 g/m*3 12.3 C 0 km/h
71 26-09-2010 14:10:01 13.2 C 8.61 g/m*3 13.2 C 0 km/h
72 26-09-2010 14:22:01 13.4 C 8.37 g/m*3 13.4 C 0 km/h
73 26-09-2010 14:34:01 13.3 C 8.43 g/m*3 13.3 C 0 km/h
74 26-09-2010 14:46:01 13.2 C 8.15 g/m*3 13.2 C 0 km/h
75 26-09-2010 14:58:01 13.4 C 7.9 g/m*3 13.4 C 0 km/h
Sensor: Nr:Datum:Temp:Abs-Feuchte:Windchill:Wind:
Aussen-T/F 76 26-09-2010 15:10:01 13.6 C 7.89 g/m*3 13.6 C 0 km/h
77 26-09-2010 15:22:02 13.9 C 8.39 g/m*3 13.9 C 0 km/h
78 26-09-2010 15:34:01 14.4 C 8.16 g/m*3 14.4 C 0 km/h
79 26-09-2010 15:46:02 14.5 C 7.96 g/m*3 14.5 C 0 km/h
80 26-09-2010 15:58:02 14.5 C 8.21 g/m*3 14.5 C 0 km/h
81 26-09-2010 16:10:01 13.7 C 7.7 g/m*3 13.7 C 0 km/h
82 26-09-2010 16:22:02 13.8 C 7.51 g/m*3 13.8 C 0 km/h
83 26-09-2010 16:34:01 15.7 C 7.09 g/m*3 15.7 C 0 km/h
84 26-09-2010 16:46:01 15.5 C 6.21 g/m*3 15.5 C 0 km/h
85 26-09-2010 16:58:01 15.9 C 6.5 g/m*3 15.9 C 0 km/h
86 26-09-2010 17:10:01 16.1 C 6.44 g/m*3 16.1 C 0 km/h
87 26-09-2010 17:22:01 15.6 C 6.38 g/m*3 15.6 C 0 km/h
88 26-09-2010 17:34:02 15.4 C 6.7 g/m*3 15.4 C 0 km/h
89 26-09-2010 17:46:01 14.6 C 6.76 g/m*3 14.6 C 0 km/h
90 26-09-2010 17:58:01 14.2 C 6.72 g/m*3 14.2 C 0 km/h
91 26-09-2010 18:10:02 13.6 C 6.83 g/m*3 13.6 C 0 km/h
92 26-09-2010 18:22:01 13.1 C 6.85 g/m*3 13.1 C 0 km/h
93 26-09-2010 18:34:01 12.9 C 6.99 g/m*3 12.9 C 0 km/h
94 26-09-2010 18:46:01 12.7 C 7.01 g/m*3 12.7 C 0 km/h
95 26-09-2010 18:58:01 12.5 C 7.04 g/m*3 12.5 C 0 km/h
96 26-09-2010 19:10:02 12.4 C 7.1 g/m*3 12.4 C 0 km/h
97 26-09-2010 19:22:01 12.4 C 7.1 g/m*3 12.4 C 0 km/h
98 26-09-2010 19:34:01 12.2 C 7.01 g/m*3 12.2 C 0 km/h
99 26-09-2010 19:46:01 12.1 C 7.18 g/m*3 12.1 C 0 km/h
100 26-09-2010 19:58:01 12.1 C 7.08 g/m*3 12.1 C 0 km/h
Sensor: Nr:Datum:Temp:Abs-Feuchte:Windchill:Wind:
Aussen-T/F 101 26-09-2010 20:10:02 12 C 7.25 g/m*3 12 C 0 km/h
102 26-09-2010 20:22:01 11.9 C 7.31 g/m*3 11.9 C 0 km/h
103 26-09-2010 20:34:01 11.7 C 7.22 g/m*3 11.7 C 0 km/h
104 26-09-2010 20:46:01 11.7 C 7.22 g/m*3 11.7 C 0 km/h
105 26-09-2010 20:58:01 11.6 C 7.07 g/m*3 11.6 C 0 km/h
106 26-09-2010 21:10:01 11.6 C 7.07 g/m*3 11.6 C 0 km/h
107 26-09-2010 21:22:01 11.4 C 7.08 g/m*3 11.4 C 0 km/h
108 26-09-2010 21:34:01 11.2 C 7.1 g/m*3 11.2 C 0 km/h
109 26-09-2010 21:46:01 10.9 C 7.16 g/m*3 10.9 C 0 km/h
110 26-09-2010 21:58:01 10.7 C 7.17 g/m*3 10.7 C 0 km/h
111 26-09-2010 22:10:01 10.3 C 6.99 g/m*3 10.3 C 0 km/h
112 26-09-2010 22:22:01 10 C 7.05 g/m*3 10 C 0 km/h
113 26-09-2010 22:34:01 9.7 C 7.1 g/m*3 9.7 C 0 km/h
114 26-09-2010 22:47:04 9.3 C 7.1 g/m*3 9.3 C 0 km/h
115 26-09-2010 22:59:04 9.2 C 7.05 g/m*3 9.2 C 0 km/h
116 26-09-2010 23:11:04 9 C 7.05 g/m*3 9 C 0 km/h
117 26-09-2010 23:23:04 8.9 C 7.18 g/m*3 8.9 C 0 km/h
118 26-09-2010 23:35:04 8.9 C 7.27 g/m*3 8.9 C 0 km/h
119 26-09-2010 23:47:04 8.8 C 7.22 g/m*3 8.8 C 0 km/h
120 26-09-2010 23:59:04 8.6 C 7.13 g/m*3 8.6 C 0 km/h

Legende:
   Min
   Max


Maximal/Minimal-Werte vom 26.09.2010 - 26.09.2010

Sensor Min Max Avg
Temp
(Aussen-T/F)
8.5 °C
26-09-2010  07:22:02
16.1 °C
26-09-2010  17:10:01
11.24 °C
Abs-Feuchte
(Aussen-T/F)
6.21 g/m*3
26-09-2010  16:46:01
8.61 g/m*3
26-09-2010  14:10:01
7.14 g/m*3
Windchill
(Aussen-T/F)
8.5 C
26-09-2010  07:22:02
16.1 C
26-09-2010  17:10:01
11.15 C

Die Daten stammen von einer Davis Vantage Pro 2 Wetter-Station und werden unter Linux mit der Software wview2wettercgi und aufbereitet. Alle Angaben erfolgen ohne Gewähr für ihre Vollständigkeit oder Richtigkeit.
Kontakt: Rainer Krienke krienke@uni-koblenz.de . Meine Webseiten an der Uni Koblenz oder privat.
Version: $Revision: 0.78 $